STARLINK P

Last updated on June 19, 2020, 12:02 a.m. UTC

1 45743U 20038P   20170.66667824  .01774582  16677-2  33763-2 0  9998
2 45743  53.0002 272.2824 0098281  69.8496  14.3383 15.91876137  1979

Satellite is not in orbit.